• In Austria
  • List of Countries
  • For 7 days
  • Water Temperature
  • Satellite Maps
  • Weather Map
  • News
  • Weather Widgets
  • user-avatar
    Login

    Hourly Weather Sidorovskoe

    Today, 25 September, Tuesday

    Time Temperature Precipitation Wind Pressure Humidity
    00:00 +6°C° 0.1 mm 5 mps 743 mmHg 90%
    01:00 +6°C° 0.1 mm 5 mps 744 mmHg 89%
    02:00 +5°C° 0 mm 4 mps 744 mmHg 90%
    03:00 +5°C° 0 mm 4 mps 745 mmHg 91%
    04:00 +4°C° 0 mm 4 mps 746 mmHg 91%
    05:00 +4°C° 0 mm 4 mps 746 mmHg 91%
    06:00 +5°C° 0 mm 4 mps 747 mmHg 89%
    07:00 +5°C° 0 mm 5 mps 748 mmHg 87%
    08:00 +5°C° 0 mm 5 mps 748 mmHg 84%
    09:00 +6°C° 0 mm 5 mps 749 mmHg 77%
    10:00 +7°C° 0 mm 5 mps 750 mmHg 71%
    11:00 +8°C° 0 mm 5 mps 750 mmHg 64%
    12:00 +8°C° 0.1 mm 5 mps 751 mmHg 63%
    13:00 +9°C° 0.1 mm 5 mps 751 mmHg 61%
    14:00 +9°C° 0.1 mm 5 mps 752 mmHg 60%
    15:00 +8°C° 0.1 mm 5 mps 753 mmHg 63%
    16:00 +7°C° 0.1 mm 4 mps 753 mmHg 66%
    17:00 +7°C° 0.1 mm 4 mps 754 mmHg 70%
    18:00 +6°C° 0 mm 4 mps 754 mmHg 71%
    19:00 +5°C° 0 mm 4 mps 755 mmHg 72%
    20:00 +4°C° 0 mm 3 mps 756 mmHg 73%
    21:00 +4°C° 0 mm 3 mps 756 mmHg 74%
    22:00 +3°C° 0 mm 3 mps 757 mmHg 75%
    23:00 +2°C° 0 mm 3 mps 758 mmHg 76%

    Tomorrow, 26 September, Wednesday

    Time Temperature Precipitation Wind Pressure Humidity
    00:00 +3°C° 0 mm 3 mps 758 mmHg 79%
    01:00 +3°C° 0 mm 3 mps 758 mmHg 82%
    02:00 +3°C° 0 mm 3 mps 759 mmHg 85%
    03:00 +3°C° 0 mm 3 mps 759 mmHg 85%
    04:00 +3°C° 0 mm 3 mps 759 mmHg 86%
    05:00 +2°C° 0 mm 3 mps 759 mmHg 87%
    06:00 +3°C° 0 mm 3 mps 759 mmHg 84%
    07:00 +4°C° 0 mm 3 mps 759 mmHg 80%
    08:00 +5°C° 0 mm 4 mps 759 mmHg 77%
    09:00 +6°C° 0 mm 4 mps 759 mmHg 70%
    10:00 +8°C° 0 mm 4 mps 758 mmHg 64%
    11:00 +10°C° 0 mm 5 mps 758 mmHg 58%
    12:00 +10°C° 0 mm 5 mps 757 mmHg 58%
    13:00 +10°C° 0 mm 5 mps 756 mmHg 59%
    14:00 +10°C° 0 mm 6 mps 756 mmHg 59%
    15:00 +9°C° 0.6 mm 6 mps 754 mmHg 68%
    16:00 +8°C° 0.6 mm 7 mps 753 mmHg 77%
    17:00 +6°C° 0.6 mm 7 mps 752 mmHg 86%
    18:00 +6°C° 1.5 mm 7 mps 751 mmHg 86%
    19:00 +6°C° 1.5 mm 8 mps 750 mmHg 87%
    20:00 +6°C° 1.5 mm 8 mps 749 mmHg 88%
    21:00 +6°C° 1.1 mm 8 mps 748 mmHg 88%
    22:00 +6°C° 1.1 mm 8 mps 746 mmHg 89%
    23:00 +7°C° 1.1 mm 8 mps 745 mmHg 89%

    Day after tomorrow, 27 September, Thursday

    Time Temperature Precipitation Wind Pressure Humidity
    00:00 +7°C° 1 mm 8 mps 745 mmHg 89%
    01:00 +8°C° 1 mm 7 mps 744 mmHg 90%
    02:00 +9°C° 1 mm 7 mps 744 mmHg 91%
    03:00 +8°C° 0.7 mm 6 mps 744 mmHg 91%
    04:00 +8°C° 0.7 mm 5 mps 744 mmHg 91%
    05:00 +8°C° 0.7 mm 4 mps 744 mmHg 91%
    06:00 +8°C° 0 mm 4 mps 744 mmHg 89%
    07:00 +8°C° 0 mm 4 mps 745 mmHg 86%
    08:00 +7°C° 0 mm 4 mps 745 mmHg 83%
    09:00 +8°C° 0 mm 5 mps 745 mmHg 75%
    10:00 +9°C° 0 mm 6 mps 746 mmHg 67%
    11:00 +10°C° 0 mm 6 mps 746 mmHg 58%
    12:00 +11°C° 0.1 mm 7 mps 746 mmHg 57%
    13:00 +11°C° 0.1 mm 7 mps 746 mmHg 56%
    14:00 +11°C° 0.1 mm 7 mps 747 mmHg 54%
    15:00 +10°C° 0.1 mm 6 mps 747 mmHg 59%
    16:00 +11°C° 0.1 mm 4 mps 747 mmHg 63%
    17:00 +10°C° 0.1 mm 3 mps 748 mmHg 68%
    18:00 +9°C° 0 mm 3 mps 748 mmHg 69%
    19:00 +8°C° 0 mm 3 mps 749 mmHg 71%
    20:00 +7°C° 0 mm 3 mps 749 mmHg 72%
    21:00 +7°C° 0 mm 3 mps 749 mmHg 74%
    22:00 +5°C° 0 mm 3 mps 750 mmHg 76%
    23:00 +5°C° 0 mm 3 mps 750 mmHg 78%

    28 September, Friday

    Time Temperature Precipitation Wind Pressure Humidity
    00:00 +5°C° 0 mm 3 mps 749 mmHg 79%
    01:00 +5°C° 0 mm 3 mps 749 mmHg 81%
    02:00 +5°C° 0 mm 2 mps 748 mmHg 82%
    03:00 +5°C° 1 mm 3 mps 747 mmHg 86%
    04:00 +5°C° 1 mm 4 mps 745 mmHg 89%
    05:00 +6°C° 1 mm 5 mps 744 mmHg 92%
    06:00 +8°C° 1.6 mm 5 mps 742 mmHg 91%
    07:00 +10°C° 1.6 mm 6 mps 741 mmHg 90%
    08:00 +12°C° 1.6 mm 7 mps 740 mmHg 90%
    09:00 +11°C° 1 mm 6 mps 740 mmHg 88%
    10:00 +10°C° 1 mm 6 mps 740 mmHg 87%
    11:00 +9°C° 1 mm 6 mps 740 mmHg 86%
    12:00 +8°C° 0.4 mm 6 mps 741 mmHg 86%
    13:00 +7°C° 0.4 mm 5 mps 743 mmHg 86%
    14:00 +5°C° 0.4 mm 5 mps 744 mmHg 87%
    15:00 +5°C° 0 mm 4 mps 745 mmHg 85%
    16:00 +5°C° 0 mm 3 mps 747 mmHg 84%
    17:00 +6°C° 0 mm 2 mps 748 mmHg 82%
    18:00 +5°C° 0 mm 2 mps 749 mmHg 85%
    19:00 +5°C° 0 mm 2 mps 750 mmHg 88%
    20:00 +4°C° 0 mm 2 mps 750 mmHg 91%
    21:00 +4°C° 0.1 mm 2 mps 751 mmHg 91%
    22:00 +4°C° 0.1 mm 2 mps 751 mmHg 92%
    23:00 +4°C° 0.1 mm 2 mps 752 mmHg 93%

    29 September, Saturday

    Time Temperature Precipitation Wind Pressure Humidity
    00:00 +3°C° 0 mm 2 mps 752 mmHg 94%
    01:00 +3°C° 0 mm 2 mps 753 mmHg 95%
    02:00 +2°C° 0 mm 2 mps 753 mmHg 96%
    03:00 +2°C° 0 mm 2 mps 754 mmHg 96%
    04:00 +1°C° 0 mm 2 mps 754 mmHg 96%
    05:00 +1°C° 0 mm 2 mps 755 mmHg 96%
    06:00 +2°C° 0 mm 2 mps 756 mmHg 93%
    07:00 +2°C° 0 mm 2 mps 756 mmHg 90%
    08:00 +3°C° 0 mm 2 mps 757 mmHg 86%
    09:00 +4°C° 0 mm 2 mps 757 mmHg 79%
    10:00 +5°C° 0 mm 2 mps 758 mmHg 71%
    11:00 +7°C° 0 mm 2 mps 759 mmHg 63%
    12:00 +7°C° 0.1 mm 3 mps 759 mmHg 59%
    13:00 +7°C° 0.1 mm 3 mps 759 mmHg 55%
    14:00 +8°C° 0.1 mm 3 mps 759 mmHg 52%
    15:00 +7°C° 0 mm 2 mps 760 mmHg 56%
    16:00 +6°C° 0 mm 2 mps 760 mmHg 60%
    17:00 +6°C° 0 mm 1 mps 760 mmHg 64%
    18:00 +5°C° 0 mm 1 mps 760 mmHg 67%
    19:00 +4°C° 0 mm 1 mps 761 mmHg 70%
    20:00 +3°C° 0 mm 1 mps 761 mmHg 73%
    21:00 +2°C° 0 mm 1 mps 761 mmHg 74%
    22:00 +2°C° 0 mm 1 mps 762 mmHg 76%
    23:00 +1°C° 0 mm 2 mps 762 mmHg 78%

    30 September, Sunday

    Time Temperature Precipitation Wind Pressure Humidity
    00:00 +1°C° 0 mm 2 mps 762 mmHg 78%
    01:00 +1°C° 0 mm 2 mps 761 mmHg 78%
    02:00 0°C° 0 mm 3 mps 761 mmHg 78%
    03:00 +1°C° 0 mm 3 mps 761 mmHg 78%
    04:00 +1°C° 0 mm 3 mps 761 mmHg 78%
    05:00 0°C° 0 mm 4 mps 761 mmHg 79%
    06:00 +1°C° 0 mm 4 mps 760 mmHg 77%
    07:00 +3°C° 0 mm 4 mps 760 mmHg 76%
    08:00 +3°C° 0 mm 5 mps 760 mmHg 74%
    09:00 +5°C° 0 mm 5 mps 760 mmHg 69%
    10:00 +7°C° 0 mm 5 mps 759 mmHg 64%
    11:00 +9°C° 0 mm 6 mps 759 mmHg 59%
    12:00 +9°C° 0 mm 5 mps 759 mmHg 59%
    13:00 +9°C° 0 mm 5 mps 759 mmHg 60%
    14:00 +10°C° 0 mm 5 mps 758 mmHg 60%
    15:00 +10°C° 0 mm 4 mps 758 mmHg 63%
    16:00 +10°C° 0 mm 4 mps 758 mmHg 66%
    17:00 +9°C° 0 mm 3 mps 758 mmHg 69%
    18:00 +8°C° 0 mm 4 mps 758 mmHg 70%
    19:00 +8°C° 0 mm 4 mps 758 mmHg 70%
    20:00 +7°C° 0 mm 4 mps 758 mmHg 71%
    21:00 +7°C° 0 mm 4 mps 758 mmHg 70%
    22:00 +7°C° 0 mm 4 mps 758 mmHg 70%
    23:00 +7°C° 0 mm 4 mps 758 mmHg 70%
    Show more